Location: ??????????
(42.1626°N, 44.1160°E)
Time: 14:00:57
(UTC+00:00)

Cosmos 2341 Rocket - Pass Details

Date: 03 March 2021
Orbit: 968 x 1004 km, 82.9° (Epoch: 20 April)

Event Time Altitude Azimuth Distance (km) Brightness Sun altitude
Rises 16:42:47 0° 192° (SSW) 3,699 7.1 -20.5°
Reaches altitude 10° 16:45:19 10° 194° (SSW) 2,750 6.4 -21.0°
Maximum altitude 16:51:36 72° 279° (W) 1,039 4.2 -22.1°
Drops below altitude 10° 16:57:54 10° 4° (N) 2,742 6.4 -23.3°
Sets 17:00:26 0° 6° (N) 3,689 7.1 -23.7°
